Location: Kansas State University
(39.1938°N, 96.5858°W)
Time: 21:00:35
(UTC-05:00)

Daily predictions for brighter satellites

Satellite Brightness Start Highest point End
(mag) Time Altitude Azimuth Time Altitude Azimuth Time Altitude Azimuth
SJ-11-01 4.5 21:20:51 10° SSE 21:25:29 60° ENE 21:30:10 10° N
Cosmos 2227 Rocket 3.7 21:25:29 10° SE 21:28:48 16° E 21:32:06 10° ENE
Cosmos 1300 4.0 21:29:09 10° NNE 21:32:21 24° ENE 21:35:32 10° SE
Cosmos 2112 Rocket 4.1 21:28:00 10° NNW 21:33:15 70° ENE 21:38:30 10° SSE
Cosmos 2266 Rocket 4.0 21:30:25 10° S 21:36:42 84° E 21:42:54 10° N
USA 186 3.6 21:38:06 10° SSW 21:39:53 20° W 21:41:45 10° NW
CZ-4 DEB 4.0 21:38:01 10° S 21:41:04 42° W 21:44:09 10° NNW
H-2A R/B 2.3 21:37:20 10° SSE 21:41:49 65° ENE 21:46:17 10° N
Cosmos 1707 Rocket 4.3 21:40:18 10° N 21:44:22 36° ENE 21:48:17 11° SE
SPOT 5 3.4 21:40:16 10° SE 21:44:37 42° ENE 21:49:14 10° N
H-2A R/B 4.2 21:43:09 10° SSW 21:46:23 21° SE 21:55:00 10° E
Cosmos 1666 Rocket 4.2 21:43:17 10° SSE 21:47:19 36° E 21:51:22 10° NNE
Cosmos 2298 Rocket 4.1 21:42:19 10° S 21:47:30 56° ESE 21:52:42 10° NNE
ARGOS 4.5 21:44:47 10° ESE 21:49:03 24° ENE 21:53:19 10° NNE
CZ-4B R/B 4.5 21:45:33 10° NE 21:50:04 29° E 21:54:28 10° SSE
Cosmos 2333 Rocket 3.5 21:46:16 10° N 21:51:08 27° NE 21:55:43 11° ESE
OTV 4 1.1 21:49:30 10° SW 21:52:15 35° SSE 21:54:46 12° E
Hubble Space Telescope 2.6 21:51:19 10° SSW 21:53:38 15° SSE 21:54:57 13° SSE
Cosmos 2315 Rocket 4.0 21:48:55 10° N 21:55:07 71° E 22:01:17 10° SSE
Cosmos 2297 Rocket 3.6 21:51:53 12° SE 21:55:10 19° E 21:58:58 10° ENE
Cosmos 1726 2.9 21:52:59 10° N 21:56:31 36° ENE 21:59:13 15° SE
DELTA 2 R/B(2) 2.9 21:55:54 10° W 21:57:29 78° N 21:59:30 11° E
Cosmos 2219 Rocket 2.9 21:53:34 10° N 21:58:48 39° ENE 22:03:06 14° SE
SL-23 DEB 4.0 21:53:37 10° NW 21:58:57 73° SW 22:01:40 16° SE
COSMOS 2428 2.7 21:57:37 10° NNW 22:03:20 85° ENE 22:08:25 13° SSE
Meteor 1-4 Rocket 3.5 22:01:31 10° N 22:04:54 32° ENE 22:06:57 18° SE
Lacrosse 4 Rocket 4.0 22:04:24 10° NNE 22:05:38 11° NE 22:06:51 10° ENE
Cosmos 2058 2.9 22:02:29 10° S 22:06:35 88° W 22:10:42 10° N
Cosmos 2151 3.9 22:03:45 10° SSW 22:07:49 49° W 22:11:55 10° N
Cosmos 1680 Rocket 4.4 22:03:36 10° NNW 22:08:37 46° WSW 22:13:38 10° S
Terra 3.7 22:14:21 12° E 22:16:47 17° ENE 22:19:48 10° NNE
COSMOS 2455 4.4 22:12:40 10° N 22:17:25 23° NE 22:21:50 11° E
H-2A R/B 3.6 22:15:25 14° ESE 22:18:33 23° ENE 22:22:45 10° NNE
Cosmos 1898 Rocket 3.5 22:13:38 10° SSW 22:18:49 87° WNW 22:24:04 10° NNE
Delta 2 Rocket 3.6 22:17:17 10° W 22:20:45 37° SSW 22:22:04 26° SSE
Cosmos 858 Rocket 4.5 22:15:48 10° SSW 22:21:00 88° ESE 22:26:14 10° NNE
Cosmos 1745 Rocket 4.3 22:16:53 14° SSE 22:21:55 48° E 22:27:48 10° NNE
Tiangong 1 2.0 22:18:54 10° W 22:21:55 47° N 22:24:56 10° ENE
Cosmos 1939 Rocket 4.0 22:19:06 10° S 22:22:47 39° W 22:26:27 10° NNW
Cosmos 1980 4.3 22:17:54 10° N 22:23:19 44° ENE 22:26:49 21° SE
NOSS 3-1 (A) 3.7 22:19:15 10° SW 22:25:05 70° NW 22:31:35 10° NNE
MetOp-B 4.1 22:23:27 16° SSE 22:27:46 90° ENE 22:33:10 10° NNW
CZ-4 SHROUD 3.7 22:28:39 20° S 22:30:34 55° WSW 22:33:39 10° NNW
SPOT 1/Viking Rocket 3.6 22:27:31 21° SSE 22:30:57 67° ENE 22:36:06 10° N
OAO 2 Rocket 3.6 22:29:23 10° WSW 22:34:34 54° S 22:38:02 21° ESE
Cosmos 2237 Rocket 2.6 22:29:30 10° NNW 22:35:04 51° ENE 22:38:17 24° SE
Sich 1 3.3 22:31:45 10° SSW 22:36:09 70° W 22:40:32 10° N
Cosmos 1626 2.9 22:36:48 31° ESE 22:37:38 35° E 22:41:05 10° NNE
Cosmos 1869 4.5 22:34:40 10° NNE 22:38:12 28° ENE 22:39:14 25° ESE
Cosmos 1271 Rocket 2.6 22:34:59 10° N 22:38:52 86° E 22:40:45 29° S
Cosmos 2082 3.7 22:34:43 10° S 22:40:22 66° ESE 22:46:03 10° NNE
YAOGAN 6 2.7 22:39:27 26° S 22:41:21 70° W 22:44:56 10° NNW
Iridium 2 3.7 22:40:37 31° SSE 22:42:16 64° E 22:46:06 10° N
ERBS 3.2 22:39:12 10° WSW 22:42:37 52° NW 22:46:03 10° NE
Cosmos 2360 Rocket 4.3 22:39:24 10° NW 22:43:23 20° W 22:47:21 10° SW
Cosmos 1862 Rocket 4.1 22:39:32 10° N 22:43:40 42° ENE 22:45:04 31° ESE
Cosmos 1633 Rocket 3.5 22:39:45 10° SSW 22:44:04 60° W 22:48:24 10° N
ATLAS 2AS CENTAUR R/B 2.9 22:39:46 10° SSW 22:47:05 69° ESE 22:55:03 10° NE
NOAA 11 4.1 22:45:11 26° SSE 22:48:21 78° ENE 22:53:50 10° N
Cosmos 2242 Rocket 3.9 22:47:32 10° NNW 22:52:00 66° W 22:54:37 24° S
CZ-4C R/B 3.4 22:52:05 42° ESE 22:52:41 47° ENE 22:56:03 10° N
Cosmos 1703 3.5 22:50:08 20° SSW 22:52:42 66° W 22:56:37 10° N
CZ-4 R/B 3.8 22:49:54 10° NNE 22:54:50 87° ESE 22:58:03 21° SSW
ATLAS 3B R/B 3.3 22:50:07 10° NNW 22:56:51 46° NE 23:00:41 23° ESE
USA 245 3.2 22:58:26 38° W 22:58:26 38° W 23:00:27 10° NNW
BREEZE-M DEB (TANK) 4.3 23:02:25 24° E 23:02:25 24° E 23:05:37 10° ENE
Cosmos 192 4.3 23:00:08 10° NNW 23:05:03 70° ENE 23:06:44 40° SE
Cosmos 2227 Rocket 2.5 23:06:36 10° SSW 23:12:12 65° WNW 23:17:52 10° NNE
FALCON 9 R/B 4.0 22:47:06 10° W 23:15:45 71° S 23:20:47 25° ESE
DMSP B5D2-2 4.0 23:13:31 10° NNE 23:18:43 66° ESE 23:20:21 42° SSE
DELTA 2 DEB (DPAF) 4.2 23:18:47 44° S 23:20:07 72° WSW 23:24:37 10° NNW
NOSS 2-3 (E) 4.0 23:21:05 48° SSE 23:21:49 53° ESE 23:27:05 10° NE
Okean 1-7 4.2 23:21:56 10° NNE 23:25:38 28° ENE 23:25:40 28° ENE
OTV 4 2.8 23:25:29 10° W 23:26:20 17° W 23:26:20 17° W
ARGOS 4.0 23:26:16 24° SSW 23:29:00 42° W 23:34:07 10° NNW
Cosmos 1455 2.8 23:26:33 10° NNW 23:30:14 47° W 23:30:51 42° SW
SL-16 R/B 2.3 23:25:13 10° NNW 23:30:53 65° ENE 23:32:32 45° SE
Cosmos 2333 Rocket 3.0 23:30:09 10° NW 23:35:33 43° WSW 23:37:44 30° SSW
Landsat 7 4.4 23:36:52 38° SSW 23:38:14 50° W 23:42:52 10° NNW
Cosmos 2297 Rocket 2.7 23:33:34 12° SW 23:38:41 57° WNW 23:44:15 10° NNE
SeaSat 1 4.3 23:40:22 17° E 23:42:11 21° NE 23:45:50 10° N
Cosmos 2219 Rocket 3.7 23:37:53 10° NW 23:42:31 27° WSW 23:44:50 21° SW
Cosmos 44 Rocket 3.3 23:43:24 54° SSW 23:44:33 79° ESE 23:49:48 10° NNE
Lacrosse 4 Rocket 1.4 23:40:32 10° NNW 23:45:00 88° NE 23:45:16 79° SE
Cosmos 1703 Rocket 3.4 23:40:54 10° N 23:45:18 80° E 23:45:29 78° ESE
NOSS 2-3 (C) 3.8 23:47:39 47° SSW 23:49:08 90° N 23:54:43 10° NNE
Cosmos 1933 3.3 23:45:34 10° N 23:49:34 79° W 23:49:34 79° W
Cosmos 1269 Rocket 4.1 23:46:41 10° NNW 23:51:59 70° WSW 23:52:57 56° SSW
Terra 2.3 23:53:15 44° SW 23:54:06 50° W 23:58:44 10° NNW
